Location: Friaudour
(46.0460°N, 1.2873°E)
Time: 04:45:02
(UTC+00:00)

Cosmos 1992 Rocket - Pass Details

Date: 14 July 2020
Orbit: 758 x 766 km, 74.0° (Epoch: 06 August)

Event Time Altitude Azimuth Distance (km) Brightness Sun altitude
Rises 01:08:16 0° 332° (NNW) 3,245 7.9 -20.6°
Reaches altitude 10° 01:10:45 10° 325° (NW) 2,314 7.0 -20.5°
Maximum altitude 01:15:39 41° 257° (WSW) 1,097 4.5 -20.2°
Enters shadow 01:16:38 37° 229° (SW) 1,169 4.5 -20.2°
